Miscellaneous Local Product
Issued by NWS Hastings, NE

Home | Current Version | Previous Version | Graphics & Text | Print | Product List | Glossary On
Versions: 1 2 3 4 5 6 7 8 9 10 11 12 13 14 15 16 17 18 19 20 21 22 23 24 25 26 27 28 29 30 31 32 33 34 35 36 37 38 39 40 41 42 43 44 45 46 47 48 49 50
792
AXUS43 KGID 240502
MISGRI

GID CWA HOURLY WEATHER ROUNDUP
NATIONAL WEATHER SERVICE HASTINGS NE
1200 AM CDT TUE MAY 24 2016

NOTE: "FAIR" INDICATES FEW OR NO CLOUDS BELOW 12,000 FEET WITH NO
SIGNIFICANT WEATHER AND/OR OBSTRUCTIONS TO VISIBILITY.

...SOUTH CENTRAL NEBRASKA...

CITY           SKY/WX    TMP DP  RH WIND       PRES   REMARKS
GRAND ISLAND   CLEAR     60  58  92 S6        29.82R
HASTINGS       CLEAR     63  62  97 SE6       29.83R
KEARNEY        CLEAR     61  57  88 SE5       29.83S
ORD            CLEAR     59  57  93 VRB3      29.80R
YORK           CLOUDY    59  57  94 CALM      29.83F
AURORA         CLOUDY    60  58  94 SE5       29.82R
LEXINGTON      CLEAR     58  53  84 CALM      29.82F
HOLDREGE       CLEAR     61  56  84 E3        29.82S
HEBRON         CLOUDY    68  59  73 S8        29.82R

...NEBRASKA PANHANDLE...

CITY           SKY/WX    TMP DP  RH WIND       PRES   REMARKS
CHADRON        CLOUDY    55  41  59 W3        29.85S
ALLIANCE       CLEAR     40  39  97 W6        29.88R
SCOTTSBLUFF    CLEAR     45  42  89 NE5       29.90R
SIDNEY         CLOUDY    41  38  89 SW5       29.92S

...WESTERN AND NORTH CENTRAL NEBRASKA...

CITY           SKY/WX    TMP DP  RH WIND       PRES   REMARKS
VALENTINE      PTCLDY    61  41  47 W8        29.81R
AINSWORTH      PTCLDY    61  43  51 W8        29.82F
ONEILL         CLEAR     63  59  86 SW6       29.80R
BROKEN BOW     CLEAR     57  45  64 E7        29.85R
IMPERIAL       CLEAR     52  45  77 N7        29.88F
NORTH PLATTE   CLEAR     51  45  79 CALM      29.85S
MCCOOK         CLEAR     58  49  72 NW6       29.83R

...EASTERN NEBRASKA...

CITY           SKY/WX    TMP DP  RH WIND       PRES   REMARKS
NORFOLK        CLOUDY    63  60  90 S3        29.80S
SO SIOUX CITY    N/A    N/A N/A N/A MISG      29.80R
TEKAMAH        LGT RAIN  65  62  90 SE13      29.82F
COLUMBUS       CLOUDY    64  52  63 S10       29.83R
ALBION         CLEAR     61  58  90 S5        29.82S
OMAHA EPPLEY   TSTM      68  63  84 S13       29.83S
OFFUTT AFB     MOCLDY    68  64  85 SE10      29.83R
MILLARD        TSTM      66  63  89 SE10      29.83S
LINCOLN        TSTM      61  58  90 S13       29.84F FOG
NEBRASKA CITY  CLOUDY    67  62  84 S10G17    29.84F
BEATRICE       CLOUDY    67  60  77 S13       29.83R
FALLS CITY     CLOUDY    67  62  84 SE9       29.86S

...NORTHERN KANSAS...

CITY           SKY/WX    TMP DP  RH WIND       PRES   REMARKS
GOODLAND       CLEAR     56  50  80 E7        29.85R
HILL CITY      PTCLDY    65  62  90 E3        29.80S
NORTON         PTCLDY    61  54  77 N5        29.81R
PHILLIPSBURG   TSTM      66  66 100 NE5       29.80F
SMITH CENTER   CLOUDY    64  63  94 NE5       29.81F
BELOIT         CLOUDY    66  61  82 SE13G18   29.79F
HAYS           CLOUDY    72  63  73 SE10      29.80F
RUSSELL        CLOUDY    69  65  86 SE12      29.79S THUNDER
CONCORDIA      PTCLDY    68  60  75 S17G24    29.83R
SALINA         CLOUDY    70  63  78 SE13      29.83S
TOPEKA         CLOUDY    65  62  90 SE6       29.89R



USA.gov is the U.S. government's official web portal to all federal, state and local government web resources and services.